Erzurum, Turkey

7:07 AM +03 on May 30, 2017 (GMT +0300)
Erzurum

Weather History for LTCE - April, 2013

Change the Weather History Date:

Thursday, April 11, 2013

  Actual Average Record
Temperature  
Mean Temperature 43 °F -  
Max Temperature 50 °F 55 °F 62 °F (1998)
Min Temperature 33 °F 36 °F 15 °F (2002)
Degree Days  
Heating Degree Days 22    
Moisture  
Dew Point 36 °F    
Average Humidity 80    
Maximum Humidity 100    
Minimum Humidity 48    
Precipitation  
Precipitation 0.12 in 0.08 in - ()
Sea Level Pressure  
Sea Level Pressure 29.96 in    
Wind  
Wind Speed 6 mph ()    
Max Wind Speed 17 mph    
Max Gust Speed -    
Visibility 6.4 miles    
Events Rain , Hail    
Averages and records for this station are not official NWS values.
T = Trace of Precipitation, MM = Missing Value Source: Averaged Metar Reports

Daily Weather History Graph

Daily Weather History Graph

Search for Another Location

Airport or City:

Trip Planner

Search our weather history database for the weather conditions in past years. The results will help you decide how hot, cold, wet, or windy it might be!

Date:

Astronomy

Apr. 11, 2013 Rise Set
Actual Time 5:43 AM EEST 6:49 PM EEST
Civil Twilight 5:16 AM EEST 7:17 PM EEST
Nautical Twilight 4:42 AM EEST 7:50 PM EEST
Astronomical Twilight 4:08 AM EEST 8:25 PM EEST
Moon 6:02 AM EEST (4/11) 8:02 PM EEST (4/11)
Length of Visible Light 14h 01m
Length of Day
13h 05m
New Moon, 1% of the Moon is Illuminated
Apr 11
New Moon
Apr 18
First Quarter
Apr 25
Full
May 2
Last Quarter
May 10
New

Hourly Weather History & Observations

Time (EEST) Temp. Windchill Dew Point Humidity Pressure Visibility Wind Dir Wind Speed Gust Speed Precip Events Conditions
12:20 AM 39.2 °F - 37.4 °F 93% 29.92 in - Calm Calm - N/A   Clear
12:50 AM 39.2 °F - 37.4 °F 93% 29.92 in - East 2.3 mph - N/A   Clear
1:20 AM 39.2 °F 37.0 °F 37.4 °F 93% 29.92 in 6.2 mi ESE 3.5 mph - N/A   Scattered Clouds
1:50 AM 39.2 °F 35.0 °F 37.4 °F 93% 29.92 in - East 5.8 mph - N/A   Clear
2:20 AM 39.2 °F - 37.4 °F 93% 29.92 in - Calm Calm - N/A   Clear
3:00 AM 39 °F - 37 °F 91%  in 6 mi East 3.5 mph - -   Partly Cloudy
3:20 AM 39.2 °F - 37.4 °F 93% 29.92 in - Variable 2.3 mph - N/A   Clear
3:50 AM 39.2 °F 37.0 °F 37.4 °F 93% 29.92 in - WNW 3.5 mph - N/A   Clear
4:20 AM 39.2 °F 37.0 °F 37.4 °F 93% 29.89 in - WNW 3.5 mph - N/A   Clear
4:50 AM 39.2 °F - 37.4 °F 93% 29.92 in - Variable 1.2 mph - N/A   Clear
5:20 AM 37.4 °F - 37.4 °F 100% 29.92 in - Calm Calm - N/A   Clear
5:50 AM 39.2 °F - 37.4 °F 93% 29.92 in - Variable 2.3 mph - N/A   Clear
6:20 AM 39.2 °F 33.0 °F 37.4 °F 93% 29.92 in 6.2 mi West 9.2 mph - N/A Rain Light Rain Showers
6:50 AM 37.4 °F 32.1 °F 35.6 °F 93% 29.92 in 6.2 mi SW 6.9 mph - N/A Rain Light Rain Showers
7:20 AM 39.2 °F 35.0 °F 35.6 °F 87% 29.95 in 6.2 mi WSW 5.8 mph - N/A   Mostly Cloudy
7:50 AM 39.2 °F 34.2 °F 35.6 °F 87% 29.95 in 6.2 mi SSW 6.9 mph - N/A   Mostly Cloudy
8:20 AM 41.0 °F 35.2 °F 37.4 °F 87% 29.95 in 6.2 mi WSW 9.2 mph - N/A   Mostly Cloudy
8:32 AM 41.0 °F 34.3 °F 35.6 °F 81% 29.95 in 6.2 mi WSW 11.5 mph - N/A Rain Light Rain Showers
8:50 AM 41.0 °F 34.7 °F 37.4 °F 87% 29.95 in 6.2 mi WSW 10.4 mph - N/A   Mostly Cloudy
9:00 AM 41 °F - 36 °F 78%  in 12 mi WSW 10.4 mph - - Rain Light Rain Showers
9:20 AM 41.0 °F 34.7 °F 37.4 °F 87% 29.98 in 6.2 mi WSW 10.4 mph - N/A Rain Light Rain Showers
9:50 AM 42.8 °F 38.0 °F 35.6 °F 76% 29.95 in 6.2 mi WSW 8.1 mph - N/A   Mostly Cloudy
10:20 AM 44.6 °F 40.7 °F 37.4 °F 76% 29.95 in 6.2 mi Variable 6.9 mph - N/A   Mostly Cloudy
10:50 AM 46.4 °F 42.4 °F 35.6 °F 66% 29.95 in 6.2 mi South 8.1 mph - N/A   Mostly Cloudy
11:20 AM 46.4 °F 42.4 °F 35.6 °F 66% 29.95 in 6.2 mi West 8.1 mph - N/A   Mostly Cloudy
11:24 AM 46.4 °F 42.9 °F 35.6 °F 66% 29.95 in 6.2 mi West 6.9 mph - N/A Rain Light Rain Showers
11:50 AM 42.8 °F 36.2 °F 37.4 °F 81% 29.95 in 6.2 mi West 12.7 mph - N/A Rain Light Rain Showers
12:00 PM 42.8 °F 36.6 °F 37.4 °F 81% 29.95 in 6.2 mi West 11.5 mph - N/A   Mostly Cloudy
12:20 PM 46.4 °F 43.5 °F 33.8 °F 62% 29.95 in 6.2 mi Variable 5.8 mph - N/A   Mostly Cloudy
12:50 PM 44.6 °F 38.4 °F 35.6 °F 71% 29.95 in 6.2 mi West 12.7 mph - N/A Rain Light Rain Showers
1:20 PM 42.8 °F 38.6 °F 39.2 °F 87% 29.95 in 6.2 mi WSW 6.9 mph - N/A   Mostly Cloudy
1:50 PM 46.4 °F 40.1 °F 37.4 °F 71% 29.95 in 6.2 mi West 15.0 mph - N/A   Mostly Cloudy
2:20 PM 46.4 °F 41.9 °F 37.4 °F 71% 29.95 in 6.2 mi West 9.2 mph - N/A   Mostly Cloudy
2:23 PM 46.4 °F 42.4 °F 37.4 °F 71% 29.95 in 6.2 mi WSW 8.1 mph - N/A Hail Light Hail Showers
2:41 PM 50.0 °F - 35.6 °F 58% 29.92 in 6.2 mi SSW 5.8 mph - N/A   Mostly Cloudy
2:50 PM 50.0 °F - 37.4 °F 62% 29.92 in 6.2 mi SSW 9.2 mph - N/A   Mostly Cloudy
3:00 PM 49 °F - 35 °F 48%  in 6 mi SSW 10.4 mph - - Hail Light Hail Showers
3:20 PM 42.8 °F 34.8 °F 37.4 °F 81% 29.95 in 6.2 mi South 17.3 mph - N/A   Mostly Cloudy
3:50 PM 46.4 °F 40.7 °F 37.4 °F 71% 29.95 in 6.2 mi West 12.7 mph - N/A   Mostly Cloudy
4:20 PM 46.4 °F 39.8 °F 35.6 °F 66% 29.95 in 6.2 mi West 16.1 mph - N/A   Mostly Cloudy
4:38 PM 44.6 °F 39.7 °F 37.4 °F 76% 29.95 in 5.0 mi SSW 9.2 mph - N/A Rain Light Rain Showers
4:50 PM 42.8 °F 36.6 °F 37.4 °F 81% 29.95 in 5.0 mi SSW 11.5 mph - N/A Rain Light Rain Showers
4:58 PM 41.0 °F 34.7 °F 37.4 °F 87% 29.95 in 6.2 mi SSW 10.4 mph - N/A   Mostly Cloudy
5:20 PM 44.6 °F 39.7 °F 35.6 °F 71% 29.95 in 6.2 mi SW 9.2 mph - N/A   Mostly Cloudy
5:50 PM 46.4 °F 41.5 °F 35.6 °F 66% 29.98 in 6.2 mi SW 10.4 mph - N/A   Mostly Cloudy
6:20 PM 44.6 °F 39.2 °F 37.4 °F 76% 29.98 in 6.2 mi WSW 10.4 mph - N/A   Mostly Cloudy
6:50 PM 44.6 °F 38.8 °F 35.6 °F 71% 29.98 in 6.2 mi West 11.5 mph - N/A   Mostly Cloudy
7:20 PM 42.8 °F 40.1 °F 37.4 °F 81% 29.98 in 6.2 mi SW 4.6 mph - N/A   Mostly Cloudy
7:50 PM 42.8 °F 36.2 °F 33.8 °F 70% 30.01 in 6.2 mi WSW 12.7 mph - N/A   Mostly Cloudy
8:20 PM 41.0 °F 33.9 °F 33.8 °F 76% 30.01 in 6.2 mi WSW 12.7 mph - N/A   Scattered Clouds
8:50 PM 39.2 °F 33.0 °F 33.8 °F 81% 30.01 in 6.2 mi WSW 9.2 mph - N/A   Scattered Clouds
9:00 PM 40 °F - 34 °F 72%  in 12 mi WSW 9.2 mph - -   Partly Cloudy
9:20 PM 39.2 °F 35.9 °F 32.0 °F 75% 30.04 in 6.2 mi WSW 4.6 mph - N/A   Scattered Clouds
9:50 PM 37.4 °F 34.9 °F 32.0 °F 81% 30.04 in 6.2 mi South 3.5 mph - N/A   Scattered Clouds
10:20 PM 37.4 °F 32.8 °F 32.0 °F 81% 30.04 in 6.2 mi SSW 5.8 mph - N/A   Scattered Clouds
10:50 PM 37.4 °F 33.8 °F 32.0 °F 81% 30.04 in 6.2 mi SSW 4.6 mph - N/A   Scattered Clouds
11:20 PM 37.4 °F 33.8 °F 30.2 °F 75% 30.04 in 6.2 mi SSW 4.6 mph - N/A   Scattered Clouds
11:50 PM 33.8 °F 29.6 °F 30.2 °F 87% 30.04 in 6.2 mi NNW 4.6 mph - N/A   Scattered Clouds